Location: Unspecified
(40.7945°N, 0.0000°E)
Time: 07:08:24
(UTC+00:00)

Explorer 7 - Pass Details

Date: 26 January 2021
Orbit: 484 x 677 km, 50.3° (Epoch: 28 February)

Event Time Altitude Azimuth Distance (km) Brightness Sun altitude
Rises 11:19:22 0° 287° (WNW) 2,776 10.1 29.3°
Reaches altitude 10° 11:22:29 10° 263° (W) 1,919 9.6 29.5°
Maximum altitude 11:24:52 14° 230° (SW) 1,677 9.8 29.6°
Drops below altitude 10° 11:27:18 10° 197° (SSW) 1,978 10.7 29.7°
Sets 11:30:36 0° 173° (S) 2,921 11.7 29.8°
